Date String (YYYY-MM-DD hh:mm:ss) UTC,Instrument flags,absolute air pressure of the measurement (hPa),sample flow rate (lpm),inlet stack bypass flow (lpm),air temperature of the measurement (°C),ambient temperature measured by the external sensor (°C),aerosol sample conditioner tube jacket temperature (°C),OPC LED temperature (°C),internal box temperature (°C),relative humidity of the measurement (%),span deviation,mass concentration of particles derived from Lorenz-Mie calculation of OPC scattering (μg/m³),mass concentration of particles derived from Lorenz-Mie calculation of OPC scattering (μg/m³),mass concentration of particles derived from Lorenz-Mie calculation of OPC scattering (μg/m³)
DateTimeUTC,F1_M11,P_M11,Q1_M11,Q2_M11,T1_M11,T2_M11,T3_M11,T4_M11,T5_M11,U1_M11,ZSPAN_M11,X0_M11,X2_M11,X1_M11
2023-10-12 01:00:00,SystemResetWarning,0814.5,5.01,000.00,028.6,027.3,000.0,037.0,030.3,25.5,0000.0,0001.86,0001.23,0000.95
2023-10-12 01:01:00,SystemResetWarning,0814.5,5.00,000.00,028.6,027.3,000.0,037.0,030.3,25.8,0000.0,0001.82,0001.19,0000.91
2023-10-12 01:02:00,SystemResetWarning,0814.5,4.99,000.00,028.6,027.3,000.0,037.1,030.3,25.3,0000.0,0001.77,0001.17,0000.90
2023-10-12 01:03:00,SystemResetWarning,0814.5,5.00,000.00,028.7,027.3,000.0,037.1,030.3,25.1,0000.0,0001.69,0001.14,0000.90
2023-10-12 01:04:00,SystemResetWarning,0814.6,5.00,000.00,028.7,027.3,000.0,037.1,030.3,25.3,0000.0,0001.61,0001.10,0000.89
2023-10-12 01:05:00,SystemResetWarning,0814.6,4.99,000.00,028.7,027.3,000.0,037.1,030.3,25.5,0000.0,0001.54,0001.08,0000.88
2023-10-12 01:06:00,SystemResetWarning,0814.7,4.99,000.00,028.7,027.3,000.0,037.1,030.3,25.6,0000.0,0001.48,0001.05,0000.86
2023-10-12 01:07:00,SystemResetWarning,0814.6,5.01,000.00,028.7,027.3,000.0,037.1,030.3,25.6,0000.0,0001.47,0001.05,0000.86
2023-10-12 01:08:00,SystemResetWarning,0814.8,5.01,000.00,028.7,027.3,000.0,037.1,030.3,25.6,0000.0,0001.49,0001.04,0000.86
2023-10-12 01:09:00,SystemResetWarning,0814.8,5.01,000.00,028.7,027.3,000.0,037.1,030.3,25.5,0000.0,0001.52,0001.02,0000.85
2023-10-12 01:10:00,SystemResetWarning,0814.9,5.01,000.00,028.7,027.3,000.0,037.2,030.3,25.4,0000.0,0001.54,0001.01,0000.85
2023-10-12 01:11:00,SystemResetWarning,0814.9,4.99,000.00,028.7,027.3,000.0,037.2,030.3,25.4,0000.0,0001.65,0001.05,0000.86
2023-10-12 01:12:00,SystemResetWarning,0814.9,4.99,000.00,028.7,027.3,000.0,037.2,030.4,25.4,0000.0,0001.65,0001.07,0000.88
2023-10-12 01:13:00,SystemResetWarning,0815.0,4.99,000.00,028.7,027.4,000.0,037.2,030.4,25.2,0000.0,0001.71,0001.08,0000.89
2023-10-12 01:14:00,SystemResetWarning,0814.9,5.00,000.00,028.8,027.3,000.0,037.2,030.4,24.9,0000.0,0001.79,0001.09,0000.91
2023-10-12 01:15:00,SystemResetWarning,0814.9,5.01,000.00,028.8,027.3,000.0,037.2,030.3,24.7,0000.0,0001.80,0001.11,0000.93
2023-10-12 01:16:00,SystemResetWarning,0815.0,5.00,000.00,028.7,027.3,000.0,037.2,030.4,24.3,0000.0,0001.87,0001.13,0000.93
2023-10-12 01:17:00,SystemResetWarning,0815.0,5.00,000.00,028.7,027.3,000.0,037.2,030.3,23.8,0000.0,0001.90,0001.15,0000.95
2023-10-12 01:18:00,SystemResetWarning,0815.0,5.00,000.00,028.7,027.3,000.0,037.2,030.3,23.9,0000.0,0001.88,0001.15,0000.95
2023-10-12 01:19:00,SystemResetWarning,0815.0,4.99,000.00,028.7,027.3,000.0,037.2,030.3,23.5,0000.0,0001.83,0001.15,0000.97
2023-10-12 01:20:00,SystemResetWarning,0815.0,4.99,000.00,028.7,027.3,000.0,037.2,030.3,22.6,0000.0,0001.83,0001.17,0000.98
2023-10-12 01:21:00,SystemResetWarning,0815.0,4.99,000.00,028.7,027.2,000.0,037.2,030.3,21.9,0000.0,0001.72,0001.18,0001.00
2023-10-12 01:22:00,SystemResetWarning,0815.0,5.01,000.00,028.7,027.2,000.0,037.2,030.3,21.4,0000.0,0001.69,0001.18,0001.01
2023-10-12 01:23:00,SystemResetWarning,0815.0,5.01,000.00,028.7,027.2,000.0,037.2,030.3,20.8,0000.0,0001.66,0001.18,0001.02
2023-10-12 01:24:00,SystemResetWarning,0815.0,5.00,000.00,028.7,027.1,000.0,037.2,030.3,20.2,0000.0,0001.79,0001.21,0001.03
2023-10-12 01:25:00,SystemResetWarning,0815.1,4.99,000.00,028.7,027.1,000.0,037.2,030.3,20.0,0000.0,0001.65,0001.21,0001.04
2023-10-12 01:26:00,SystemResetWarning,0815.1,4.99,000.00,028.7,027.1,000.0,037.2,030.3,20.2,0000.0,0001.66,0001.21,0001.04
2023-10-12 01:27:00,SystemResetWarning,0815.1,5.00,000.00,028.7,027.1,000.0,037.2,030.2,19.4,0000.0,0001.77,0001.22,0001.03
2023-10-12 01:28:00,SystemResetWarning,0815.2,5.01,000.00,028.7,027.1,000.0,037.2,030.3,19.1,0000.0,0001.79,0001.23,0001.03
2023-10-12 01:29:00,SystemResetWarning,0815.2,5.01,000.00,028.7,027.1,000.0,037.2,030.2,18.9,0000.0,0002.01,0001.28,0001.03
2023-10-12 01:30:00,SystemResetWarning,0815.2,5.00,000.00,028.7,027.1,000.0,037.2,030.2,19.2,0000.0,0002.00,0001.27,0001.02
2023-10-12 01:31:00,SystemResetWarning,0815.2,4.99,000.00,028.7,027.1,000.0,037.2,030.2,19.7,0000.0,0002.10,0001.28,0001.01
2023-10-12 01:32:00,SystemResetWarning,0815.3,4.99,000.00,028.7,027.1,000.0,037.2,030.3,19.8,0000.0,0002.12,0001.29,0001.00
2023-10-12 01:33:00,SystemResetWarning,0815.2,4.99,000.00,028.7,027.2,000.0,037.2,030.3,19.5,0000.0,0002.26,0001.33,0001.01
2023-10-12 01:34:00,SystemResetWarning,0815.3,5.00,000.00,028.7,027.2,000.0,037.2,030.3,19.8,0000.0,0002.33,0001.34,0001.00
2023-10-12 01:35:00,SystemResetWarning,0815.3,5.01,000.00,028.7,027.2,000.0,037.2,030.2,20.1,0000.0,0002.21,0001.32,0000.99
2023-10-12 01:36:00,SystemResetWarning,0815.2,5.01,000.00,028.7,027.2,000.0,037.2,030.2,19.8,0000.0,0002.28,0001.33,0000.98
2023-10-12 01:37:00,SystemResetWarning,0815.2,5.00,000.00,028.7,027.2,000.0,037.1,030.2,19.8,0000.0,0002.31,0001.33,0000.97
2023-10-12 01:38:00,SystemResetWarning,0815.2,5.00,000.00,028.6,027.2,000.0,037.1,030.2,20.0,0000.0,0002.22,0001.33,0000.98
2023-10-12 01:39:00,SystemResetWarning,0815.2,5.00,000.00,028.6,027.2,000.0,037.1,030.2,20.3,0000.0,0002.16,0001.32,0000.98
2023-10-12 01:40:00,SystemResetWarning,0815.2,4.99,000.00,028.6,027.2,000.0,037.1,030.2,20.4,0000.0,0002.01,0001.28,0000.96
2023-10-12 01:41:00,SystemResetWarning,0815.2,5.00,000.00,028.6,027.2,000.0,037.1,030.2,19.9,0000.0,0002.03,0001.29,0000.96
2023-10-12 01:42:00,SystemResetWarning,0815.2,4.99,000.00,028.6,027.2,000.0,037.1,030.2,19.7,0000.0,0002.00,0001.30,0000.96
2023-10-12 01:43:00,SystemResetWarning,0815.2,5.00,000.00,028.6,027.2,000.0,037.1,030.3,20.0,0000.0,0002.02,0001.32,0000.98
2023-10-12 01:44:00,SystemResetWarning,0815.2,5.01,000.00,028.7,027.2,000.0,037.1,030.3,19.8,0000.0,0001.94,0001.29,0000.99
2023-10-12 01:45:00,SystemResetWarning,0815.2,5.00,000.00,028.6,027.2,000.0,037.1,030.3,19.8,0000.0,0001.88,0001.28,0001.00
2023-10-12 01:46:00,SystemResetWarning,0815.2,4.99,000.00,028.6,027.2,000.0,037.1,030.3,20.4,0000.0,0002.07,0001.30,0001.00
2023-10-12 01:47:00,SystemResetWarning,0815.2,5.00,000.00,028.6,027.2,000.0,037.1,030.2,20.8,0000.0,0002.02,0001.28,0001.00
2023-10-12 01:48:00,SystemResetWarning,0815.2,4.99,000.00,028.6,027.2,000.0,037.1,030.2,19.7,0000.0,0002.10,0001.30,0001.00
2023-10-12 01:49:00,SystemResetWarning,0815.2,5.00,000.00,028.6,027.2,000.0,037.1,030.2,18.9,0000.0,0002.07,0001.28,0000.98
2023-10-12 01:50:00,SystemResetWarning,0815.3,5.00,000.00,028.6,027.2,000.0,037.1,030.2,18.8,0000.0,0002.18,0001.31,0000.98
2023-10-12 01:51:00,SystemResetWarning,0815.3,5.00,000.00,028.6,027.2,000.0,037.1,030.2,19.3,0000.0,0002.20,0001.31,0000.99
2023-10-12 01:52:00,SystemResetWarning,0815.2,5.01,000.00,028.7,027.2,000.0,037.1,030.3,19.1,0000.0,0002.21,0001.31,0001.00
2023-10-12 01:53:00,SystemResetWarning,0815.2,5.01,000.00,028.7,027.2,000.0,037.1,030.3,18.9,0000.0,0002.14,0001.28,0000.99
2023-10-12 01:54:00,SystemResetWarning,0815.2,5.00,000.00,028.7,027.2,000.0,037.1,030.3,18.8,0000.0,0002.08,0001.25,0000.97
2023-10-12 01:55:00,SystemResetWarning,0815.3,5.00,000.00,028.7,027.2,000.0,037.1,030.3,19.1,0000.0,0002.07,0001.23,0000.94
2023-10-12 01:56:00,SystemResetWarning,0815.3,4.99,000.00,028.7,027.2,000.0,037.2,030.3,19.0,0000.0,0002.05,0001.20,0000.90
2023-10-12 01:57:00,SystemResetWarning,0815.3,5.00,000.00,028.7,027.2,000.0,037.1,030.3,19.1,0000.0,0001.80,0001.13,0000.85
2023-10-12 01:58:00,SystemResetWarning,0815.3,4.99,000.00,028.7,027.2,000.0,037.1,030.3,18.8,0000.0,0001.65,0001.07,0000.81
2023-10-12 01:59:00,SystemResetWarning,0815.2,5.00,000.00,028.7,027.2,000.0,037.1,030.2,19.2,0000.0,0001.51,0000.99,0000.76
